{"data":{"norad_id":59255,"epoch":"2026-05-25T03:28:20.078976Z","epoch_age_seconds":55699,"freshness":"FRESH","line1":"1 59255U 24050B   26145.14467684 -.00000064  00000+0  99788-5 0  9991","line2":"2 59255  53.1600 185.9080 0001179  82.7983 277.3152 15.30185555122256","mean_motion":15.30185555,"eccentricity":0.0001179,"inclination_deg":53.16,"raan_deg":185.908,"arg_perigee_deg":82.7983,"mean_anomaly_deg":277.3152,"bstar":9.9788e-6,"rev_number":12225,"period_min":94.106234063881,"perigee_km":474.45018463082,"apogee_km":476.06621521896,"semimajor_km":6853.3951999249,"source":"CELESTRAK","updated_at":"2026-05-25T13:38:18.874131Z"}}